Regional Weather Roundup
Issued by NWS Newport/Morehead, NC

Home | Current Version | Previous Version | Text Only | Print | Product List | Glossary On
Versions: 1 2 3 4 5 6 7 8 9 10 11 12 13 14 15 16 17 18 19 20 21 22 23 24 25 26 27 28 29 30 31 32 33 34 35 36 37 38 39 40 41 42 43 44 45 46 47 48 49 50
000
ASUS42 KMHX 052113
RWRMHX
WEATHER ROUNDUP FOR EASTERN NORTH CAROLINA
NATIONAL WEATHER SERVICE NEWPORT/MOREHEAD CITY NC
500 PM EDT THU MAY 05 2016

NOTE: "FAIR" INDICATES FEW OR NO CLOUDS BELOW 12,000 FEET
WITH NO SIGNIFICANT WEATHER AND/OR OBSTRUCTIONS TO VISIBILITY

NCZ015>017-031-032-045>047-102-103-052200-
NORTH COAST

CITY           SKY/WX    TMP DP  RH WIND       PRES   REMARKS
EDENTON        RAIN      54  54  97 E6        29.59R
ELIZABETH CITY CLOUDY    52  49  89 N16       29.57R
KITTY HAWK     CLOUDY    53  48  84 NE13G20   29.53R
MANTEO         CLOUDY    52  50  92 NE18G25   29.54R

$$

NCZ045>047-081-094-103-104-052200-
CENTRAL COAST

CITY           SKY/WX    TMP DP  RH WIND       PRES   REMARKS
FRISCO         CLOUDY    56  53  90 NE9G20    29.51R
SWANQUARTER    NOT AVBL

$$

NCZ095-097-098-100-101-052200-
SOUTHERN COAST

CITY           SKY/WX    TMP DP  RH WIND       PRES   REMARKS
BEAUFORT       CLOUDY    62  57  83 NE13      29.50S
CEDAR ISLAND   NOT AVBL
JACKSONVILLE   PTSUNNY   57  53  86 NW14      29.55S
PINEY ISLAND   NOT AVBL
WILMINGTON     MOSUNNY   62  50  64 NW17G24   29.56R


$$

NCZ011>013-027>030-043-044-078>080-089-090>093-098-052200-
COASTAL PLAIN

CITY           SKY/WX    TMP DP  RH WIND       PRES   REMARKS
AHOSKIE        RAIN      53  51  95 NE3       29.58R
CLINTON        PTSUNNY   59  51  74 W5        29.60R
ELIZABETHTOWN  CLOUDY    61  49  64 NW7       29.59R
GOLDSBORO      PTSUNNY   59  59 100 NW14      29.56R
GREENVILLE     HVY RAIN  55  55 100 NW5       29.61R
HAVELOCK       TSTM      58  56  93 NE13      29.55R FOG
KENANSVILLE    CLOUDY    57  50  77 CALM      29.60R
KINSTON        RAIN      54  54 100 NW7       29.59R
NEW BERN       HVY RAIN  57  54  89 NW12      29.57R FOG
RICHLANDS      CLOUDY    56  54  93 N5        29.58R
ROCKY MOUNT    CLOUDY    54  52  93 N8        29.57S
WASHINGTON     HVY RAIN  54  53  95 N6        29.56R
WHITEVILLE     NOT AVBL

$$

AMZ130-135-150-152-154-156-158-170-250-252-270-ANZ085-086-088-633-658-670-052200-
MARINE OBSERVATIONS

STATION/POSITION TIME  TEMP    WIND        PRES    WAVE   SWELL
                       AIR SEA DIR/SP/G            HT/PER HT/PER
                 (UTC) (F)     (DEG/KT/KT) (MB)    (FT/S) (FT/S)
CHESAPEAKE LIGHT 2100   50      30/ 27/ 29 1001.0
64 E VA BEACH    2050   50 52   20/ 21/ 27  999.1    7/ 7   3/12
DUCK             2000   52 62   20/ 25/ 30  999.0
2 E DUCK         2011      60                N/A     7/ 7
OREGON INLET     2000   53 61  360/ 13/ 22  999.1
13E OREGON INLT  2100      55                N/A     8/ 6   3/10
HATTERAS CG      2000   57 68   20/ 17/ 23  998.2
DIAMOND BUOY     2050   58 77   20/ 19/ 25  998.3    6/ 6   2/14
CAPE LOOKOUT     2100   61      60/ 13/ 15  998.9
BEAUFORT LAB     2000   62 69   40/  6/  8  998.2
30 SE NEW RVR IN 2025      73                N/A     4/ 7
27 SE WRIGHTSVLE 2008   64 72  320/ 25/ 35  998.3
5 SE WRIGHTSVLE  2008   61 70  340/ 16/ 27 1000.7
225 S CAPE HAT   2050   73 74  220/ 19/ 23 1000.9    8/ 8
41 SE CHARLESTON 2050   69 74  270/ 19/ 25 1001.7    5/ 6   2/10

$$




USA.gov is the U.S. government's official web portal to all federal, state and local government web resources and services.